Wind_Speed
7 8 9 9 9 10 10 10 10 10 9 9 9 9 9 8 8 8 8 8 8 9 9 8 8 8 8 8 8 8 8 8 7 7 7 7 8 8 8 8 8 9 9
7 7 8 9 8 8 9 9 8 9 9 9 10 10 9 9 9 8 8 8 9 9 9 9 9 10 9 9 9 9 9 9 9 8 8 9 9 8 8 8 9 9 10
6 7 7 8 8 8 8 8 7 7 8 8 9 9 9 9 9 9 10 9 9 10 10 9 9 10 9 9 9 9 10 9 9 9 9 9 10 9 9 9 9 10 10
6 6 7 7 8 8 8 8 7 7 8 8 8 9 9 9 9 10 10 10 9 9 9 9 10 10 10 10 11 11 11 10 10 10 10 10 10 10 10 11 11 11 11
5 6 6 6 7 8 9 8 7 7 7 8 8 9 9 9 10 10 10 10 10 10 10 10 10 11 11 12 11 11 11 11 11 11 12 11 10 10 11 11 11 12 12
4 5 6 6 6 7 8 8 7 7 8 9 9 9 9 9 9 10 10 10 11 11 11 10 11 12 12 13 12 12 12 12 12 12 12 12 12 12 12 11 11 12 12
3 4 5 5 6 7 7 8 7 7 8 9 10 9 10 9 9 9 9 10 11 11 11 11 11 12 12 13 13 13 13 14 14 13 13 13 13 13 12 12 12 12 13
3 3 3 3 4 5 6 7 7 7 7 8 8 9 9 9 9 10 10 10 11 11 11 11 12 12 12 12 12 12 13 13 13 13 14 14 13 13 13 12 12 13 14
2 2 2 3 3 4 5 5 6 7 7 7 8 8 9 9 10 10 10 10 10 11 11 11 12 12 13 12 12 12 12 11 12 13 13 13 13 13 13 13 13 13 14
2 2 3 3 3 3 4 4 5 6 7 7 8 8 8 9 10 10 11 11 11 11 11 12 12 13 12 11 11 12 12 12 12 13 13 13 13 14 14 14 14 14 15
2 3 3 3 3 4 4 5 6 6 6 7 7 8 9 10 11 11 12 13 13 12 12 12 12 13 13 12 13 13 13 13 13 14 14 13 13 14 15 15 15 16 16
3 3 4 4 4 4 5 5 6 6 7 7 8 9 9 10 11 12 12 13 13 13 13 13 13 14 14 14 15 14 14 14 14 14 14 14 15 15 16 16 17 17 17
4 4 5 6 6 6 6 7 7 8 8 9 10 11 12 13 13 13 14 14 14 14 14 15 16 16 16 16 16 16 16 16 16 16 16 17 17 17 17 18 18 18 18
6 6 6 7 8 8 8 9 9 9 10 11 12 12 13 13 13 13 14 15 15 15 15 16 16 16 17 18 17 17 17 17 17 17 18 18 18 18 18 18 19 19 19
8 8 8 9 9 9 10 10 11 11 12 12 13 13 13 14 15 16 16 17 16 16 17 17 18 18 18 18 18 18 18 19 19 19 20 20 20 19 20 20 20 20 20
10 10 11 11 11 12 12 13 13 13 13 14 14 15 15 16 16 17 17 17 17 17 17 18 19 19 19 19 20 20 20 20 21 22 22 21 21 21 21 22 21 21 21
12 13 13 13 13 14 14 15 16 16 16 16 17 17 17 17 17 18 18 18 18 18 19 20 20 20 20 21 22 22 22 22 23 23 23 23 23 23 23 22 22 22 23
15 15 16 16 16 16 16 16 17 17 18 18 18 18 18 18 18 19 19 20 19 19 20 20 21 21 21 22 22 23 23 24 24 24 24 24 23 24 23 23 23 23 24
17 17 17 17 18 18 19 19 19 19 20 20 20 20 20 20 20 20 20 20 21 21 21 21 21 22 23 23 24 24 25 25 25 25 25 24 24 24 25 25 24 24 25
18 19 19 19 19 20 21 21 22 22 22 22 22 22 21 22 21 22 22 22 22 22 22 22 23 24 24 25 26 26 27 27 27 27 26 26 26 26 26 26 26 26 27
21 21 21 22 22 23 23 23 24 24 24 24 24 24 24 24 24 24 24 24 24 25 25 25 25 26 26 27 27 28 28 28 29 28 28 28 28 28 28 28 28 28 28
24 24 24 25 25 25 25 25 25 26 26 27 26 27 27 27 26 26 27 27 27 28 28 28 28 28 28 28 28 29 29 30 30 30 31 30 30 30 30 30 30 30 30
26 26 27 26 26 27 27 27 28 28 29 29 29 29 28 29 29 29 29 29 30 30 31 31 31 31 30 30 30 30 31 31 32 32 32 32 32 32 32 31 31 31 32
28 28 28 28 28 28 29 30 30 31 31 30 30 29 30 30 30 31 31 31 32 32 33 33 33 32 32 32 32 32 33 33 33 33 33 33 33 34 34 33 33 32 33
29 30 30 30 30 30 31 32 32 32 32 32 31 31 31 31 32 33 34 34 34 34 35 35 35 34 33 33 34 35 36 36 35 35 35 35 35 35 35 34 34 34 34
30 30 31 31 32 32 33 33 34 33 33 33 33 33 33 34 34 35 35 36 36 36 36 36 37 37 36 36 36 37 37 38 38 37 36 36 36 36 36 35 35 34 35
Wind_Direction
163 166 171 175 182 188 190 193 196 200 207 212 216 220 226 233 241 243 249 242 241 243 243 247 253 254 258 264 263 263 267 267 268 269 269 268 268 271 265 264 271 274 276
163 168 175 178 180 185 188 191 196 203 211 218 221 225 232 240 246 249 251 248 248 247 246 250 252 255 259 267 268 265 269 266 266 267 270 271 267 267 268 269 270 274 275
168 172 178 183 184 184 192 199 202 211 218 225 231 237 237 249 250 255 255 253 254 253 254 257 255 258 261 267 266 266 271 267 265 267 272 275 266 263 267 270 272 274 274
167 176 178 185 186 188 194 200 205 213 219 229 234 239 247 255 256 259 259 257 259 261 260 260 258 256 261 264 263 265 267 265 266 270 273 276 269 267 269 270 271 272 272
178 181 177 184 189 193 199 206 213 218 222 228 233 239 246 252 255 258 260 259 257 258 259 261 261 259 262 265 267 267 266 266 266 273 274 275 276 276 275 273 271 271 272
169 181 185 191 196 198 205 211 218 223 228 235 240 242 247 253 255 258 257 260 257 257 258 259 259 260 263 265 268 270 268 268 270 271 271 271 272 276 279 273 274 276 274
171 185 188 194 202 206 210 216 221 227 234 239 241 244 249 252 254 255 261 265 263 261 260 263 261 261 262 263 267 270 269 268 270 271 270 272 274 274 275 275 274 274 276
177 185 184 191 207 215 219 222 226 231 236 240 242 248 252 254 256 260 261 261 264 264 262 259 259 262 265 267 268 273 270 269 270 274 272 274 275 275 274 274 276 275 275
193 188 196 196 214 223 224 228 228 228 237 247 253 258 262 260 264 262 267 267 265 263 261 263 265 266 270 268 270 272 272 276 277 276 275 273 274 272 273 277 274 275 276
229 228 219 219 232 238 232 226 232 240 246 252 257 264 265 267 268 267 273 272 272 271 270 270 271 271 272 272 275 274 276 280 280 282 280 275 275 275 278 279 277 277 277
248 247 247 248 247 249 245 242 247 250 255 258 265 271 273 275 274 274 277 279 278 275 274 274 273 272 271 273 274 274 277 278 279 280 278 276 276 276 277 276 278 279 280
270 273 275 271 271 270 268 266 261 257 263 273 282 283 282 282 281 278 278 279 280 277 273 271 271 271 269 270 271 273 275 276 278 281 279 279 279 280 278 275 277 280 281
294 290 285 277 278 281 282 279 274 268 271 277 282 285 284 282 281 278 280 281 281 276 273 272 273 273 272 273 273 276 276 276 279 280 280 279 279 279 278 278 279 280 281
283 287 286 280 280 280 281 282 282 276 275 277 280 284 286 287 286 283 283 284 282 278 275 276 277 275 272 273 273 277 276 277 279 280 280 279 278 277 277 277 278 279 280
274 277 283 287 291 292 291 287 285 280 279 280 280 283 286 288 286 283 281 280 279 278 280 280 281 283 282 279 278 277 277 278 279 279 279 279 277 277 277 277 277 278 279
274 276 279 282 284 288 289 288 286 287 285 285 284 285 285 284 285 285 282 279 277 277 279 281 281 280 279 280 280 278 278 280 281 280 278 277 277 278 277 278 278 279 279
275 278 279 280 284 285 284 283 283 283 283 282 283 284 285 285 286 286 285 282 279 277 277 280 281 281 281 281 281 278 278 280 282 280 278 277 278 279 280 280 279 279 280
274 278 280 282 282 282 283 282 283 281 281 281 280 280 282 284 285 285 284 283 283 281 279 279 280 282 282 281 281 279 278 279 280 280 279 278 279 280 281 280 280 280 279
277 280 280 282 282 282 283 282 281 280 281 281 280 280 281 282 283 283 283 283 283 284 283 282 282 282 283 282 281 279 280 281 282 282 280 280 279 279 280 279 279 279 279
277 280 281 281 283 284 282 280 280 281 281 281 281 281 281 281 282 283 283 283 283 284 284 283 282 283 284 283 282 281 282 282 282 281 281 280 279 279 278 278 279 279 279
278 279 280 281 283 283 282 282 281 280 280 280 280 280 281 280 280 281 282 282 282 283 283 282 282 282 283 283 283 282 282 281 281 281 280 280 280 279 279 278 278 278 278
277 278 279 280 282 283 283 281 279 279 279 280 281 281 280 278 278 278 279 280 280 282 283 282 282 282 282 283 283 283 283 281 281 280 279 279 279 279 280 280 278 277 277
276 277 278 280 280 282 282 279 279 278 279 280 281 281 281 278 277 278 277 278 280 282 282 282 282 282 282 281 281 282 282 282 281 280 279 279 278 279 279 279 279 278 277
278 278 279 279 279 280 280 282 280 279 280 280 281 280 280 279 278 278 279 279 279 280 282 282 283 283 282 281 281 281 281 281 281 280 280 279 278 278 279 279 278 277 276
279 279 280 279 279 280 280 280 280 279 279 280 280 280 281 280 278 279 281 281 280 280 281 281 281 281 282 282 282 281 281 281 280 279 280 279 278 277 276 277 278 277 276
280 280 281 280 280 280 280 280 279 279 280 280 280 280 281 280 279 280 281 281 281 281 281 280 280 281 281 281 282 283 282 281 281 280 279 279 278 277 277 277 277 276 275
Height
5883 5884 5886 5887 5888 5890 5892 5893 5895 5896 5898 5898 5899 5900 5901 5901 5901 5902 5902 5903 5903 5903 5903 5903 5904 5904 5904 5904 5904 5904 5904 5904 5904 5904 5904 5903 5903 5903 5903 5903 5903 5903 5903
5884 5885 5886 5888 5889 5890 5891 5893 5895 5896 5897 5898 5899 5899 5900 5900 5901 5901 5901 5901 5901 5902 5902 5902 5902 5902 5902 5902 5902 5903 5903 5903 5903 5902 5902 5902 5901 5901 5901 5901 5901 5901 5901
5884 5885 5887 5888 5889 5890 5891 5893 5894 5895 5896 5897 5898 5898 5899 5899 5899 5900 5900 5900 5900 5900 5901 5901 5901 5901 5901 5901 5901 5901 5901 5900 5900 5900 5900 5900 5899 5899 5899 5899 5899 5899 5899
5885 5886 5887 5888 5889 5890 5892 5893 5894 5895 5896 5897 5897 5897 5898 5898 5898 5898 5898 5898 5899 5899 5899 5899 5899 5900 5900 5899 5899 5899 5899 5898 5898 5898 5898 5897 5897 5897 5897 5897 5897 5897 5896
5885 5886 5887 5888 5889 5890 5891 5892 5894 5894 5895 5896 5896 5897 5897 5897 5897 5897 5897 5897 5897 5897 5897 5897 5897 5898 5898 5898 5897 5897 5896 5896 5896 5896 5896 5895 5895 5894 5894 5894 5894 5894 5894
5885 5886 5887 5888 5889 5890 5890 5892 5893 5894 5895 5895 5895 5896 5895 5895 5895 5895 5895 5895 5895 5895 5895 5895 5895 5895 5895 5895 5895 5894 5894 5894 5894 5894 5893 5893 5893 5892 5892 5891 5892 5891 5891
5886 5886 5887 5888 5888 5889 5890 5891 5892 5893 5893 5894 5894 5894 5894 5894 5894 5894 5893 5893 5893 5893 5892 5892 5892 5892 5892 5892 5892 5892 5892 5892 5891 5891 5890 5890 5890 5889 5889 5889 5889 5889 5889
5887 5887 5888 5888 5888 5889 5890 5890 5891 5892 5892 5892 5893 5893 5892 5893 5892 5892 5891 5891 5891 5890 5890 5890 5890 5890 5890 5889 5889 5889 5889 5889 5889 5888 5888 5887 5887 5887 5886 5886 5886 5886 5886
5888 5888 5888 5889 5889 5889 5889 5890 5890 5891 5891 5891 5891 5891 5891 5891 5890 5890 5889 5889 5888 5888 5887 5887 5887 5887 5887 5887 5887 5886 5886 5886 5886 5885 5885 5884 5884 5884 5883 5883 5883 5882 5882
5888 5888 5888 5889 5889 5889 5889 5889 5890 5890 5890 5890 5889 5889 5889 5889 5888 5888 5887 5887 5886 5885 5885 5884 5884 5884 5884 5884 5884 5883 5883 5883 5883 5882 5882 5881 5881 5880 5880 5880 5879 5879 5879
5888 5889 5888 5888 5888 5888 5888 5889 5889 5889 5889 5888 5888 5888 5888 5887 5886 5886 5885 5884 5883 5882 5882 5882 5882 5882 5881 5881 5881 5880 5880 5880 5879 5879 5878 5878 5877 5877 5877 5876 5876 5876 5875
5888 5888 5888 5888 5888 5887 5888 5888 5888 5887 5887 5887 5887 5886 5886 5885 5884 5884 5883 5882 5881 5880 5879 5879 5879 5879 5878 5878 5878 5877 5877 5876 5876 5875 5875 5874 5874 5873 5873 5872 5872 5871 5871
5888 5888 5888 5888 5887 5887 5887 5886 5886 5886 5886 5885 5885 5884 5884 5883 5882 5881 5880 5879 5878 5878 5877 5876 5876 5876 5875 5875 5874 5874 5873 5873 5872 5872 5871 5870 5870 5869 5868 5868 5867 5867 5866
5887 5887 5887 5887 5886 5886 5885 5885 5884 5884 5884 5883 5883 5882 5881 5880 5879 5878 5877 5876 5875 5874 5874 5873 5872 5872 5871 5871 5870 5870 5869 5869 5868 5867 5867 5866 5865 5864 5864 5863 5862 5862 5861
5886 5886 5885 5885 5884 5884 5883 5883 5882 5881 5881 5880 5880 5879 5878 5877 5876 5875 5874 5873 5872 5871 5870 5869 5868 5868 5867 5866 5866 5865 5865 5864 5863 5863 5862 5861 5860 5859 5859 5858 5857 5857 5856
5884 5884 5883 5883 5882 5881 5880 5880 5879 5878 5878 5877 5876 5875 5874 5873 5872 5871 5870 5869 5868 5868 5867 5866 5865 5864 5863 5862 5861 5860 5860 5859 5858 5858 5857 5856 5855 5854 5853 5852 5852 5851 5850
5881 5881 5880 5880 5879 5878 5877 5876 5875 5874 5874 5873 5872 5872 5871 5869 5868 5867 5866 5865 5864 5863 5862 5861 5860 5859 5858 5857 5856 5855 5854 5854 5853 5852 5851 5850 5849 5848 5847 5846 5846 5845 5844
5878 5878 5877 5876 5875 5875 5874 5873 5871 5870 5870 5869 5868 5867 5866 5865 5864 5862 5861 5860 5859 5858 5858 5856 5855 5853 5853 5852 5851 5850 5848 5847 5847 5845 5844 5844 5843 5842 5841 5840 5839 5839 5838
5875 5874 5873 5872 5871 5870 5869 5868 5867 5866 5865 5864 5863 5862 5861 5860 5859 5858 5856 5855 5854 5853 5852 5851 5849 5848 5847 5846 5845 5844 5842 5841 5840 5839 5838 5837 5836 5835 5834 5833 5832 5831 5831
5870 5869 5868 5867 5867 5865 5864 5863 5862 5861 5860 5859 5858 5857 5855 5854 5853 5852 5851 5850 5849 5847 5846 5845 5844 5842 5841 5839 5838 5837 5836 5834 5833 5832 5830 5829 5828 5827 5826 5825 5825 5824 5823
5865 5864 5863 5862 5861 5860 5859 5858 5856 5855 5854 5853 5852 5851 5850 5849 5848 5847 5845 5844 5843 5841 5840 5838 5837 5836 5834 5832 5831 5830 5828 5827 5825 5824 5822 5821 5820 5819 5818 5817 5816 5816 5815
5859 5858 5857 5856 5855 5854 5853 5851 5850 5848 5847 5846 5845 5844 5843 5842 5841 5840 5838 5837 5835 5834 5833 5831 5830 5828 5827 5825 5823 5822 5820 5819 5817 5816 5814 5813 5812 5810 5809 5808 5807 5807 5806
5852 5851 5850 5849 5848 5847 5846 5844 5843 5841 5840 5839 5838 5836 5835 5834 5833 5832 5830 5829 5828 5826 5825 5823 5822 5820 5819 5817 5815 5813 5812 5810 5809 5807 5805 5804 5803 5801 5800 5799 5798 5797 5796
5845 5844 5843 5842 5841 5839 5837 5836 5835 5833 5832 5831 5830 5828 5827 5826 5824 5823 5822 5821 5819 5818 5816 5814 5813 5811 5810 5808 5806 5805 5803 5801 5799 5797 5796 5795 5793 5792 5791 5789 5788 5788 5787
5836 5835 5834 5833 5832 5831 5830 5828 5827 5825 5824 5822 5821 5820 5819 5817 5816 5815 5813 5811 5809 5808 5806 5805 5804 5802 5800 5798 5797 5795 5793 5791 5789 5788 5786 5785 5783 5782 5781 5780 5778 5778 5777
5828 5827 5825 5824 5823 5822 5821 5819 5818 5816 5815 5813 5812 5811 5809 5808 5807 5805 5803 5801 5799 5798 5796 5794 5793 5792 5790 5788 5786 5784 5782 5780 5779 5778 5776 5774 5773 5771 5771 5770 5768 5767 5766